Terminal Aerodrome Forecast
Issued by NWS

Home | Current Version | Previous Version | Text Only | Print | Product List | Glossary On
Versions: 1 2 3 4 5 6 7 8 9 10 11 12 13 14 15
000
FTUS45 KRIW 290700 AAA
TAFCPR
TAF AMD
KCPR 290722Z 2907/3006 01006KT P6SM -SHRA SCT025 BKN035
      TEMPO 2907/2909 6SM -SHRA BKN025
     FM290900 01007KT P6SM -RA OVC028
     FM292100 03006KT P6SM VCSH OVC030
     FM300100 09008KT P6SM OVC035=

USA.gov is the U.S. government's official web portal to all federal, state and local government web resources and services.